Terminal Aerodrome Forecast
Issued by NWS Charleston, WV

Current Version | Previous Version | Text Only | Print | Product List | Glossary Off
Versions: 1 2 3 4 5 6 7 8 9 10 11 12 13 14 15 16 17 18 19 20 21 22 23 24 25 26 27 28

000
FTUS41 KRLX 202100 AAA
TAFCRW
TAF AMD
KCRW 202111Z 2021/2118 32004KT P6SM SCT040 SCT100
     FM202300 20004KT P6SM SCT250
     FM210400 18003KT 6SM BR FEW150
     FM210600 18002KT 4SM BR FEW035
     FM210900 20006KT P6SM BKN030
     FM211400 22008KT P6SM VCSH BKN025=

USA.gov is the U.S. government's official web portal to all federal, state and local government web resources and services.